Date,TemperatureHighF,TemperatureAvgF,TemperatureLowF,DewpointHighF,DewpointAvgF,DewpointLowF,HumidityHigh,HumidityAvg,HumidityLow,PressureMaxIn,PressureMinIn,WindSpeedMaxMPH,WindSpeedAvgMPH,GustSpeedMaxMPH,PrecipitationSumIn
2013-9-1,89.6,76.3,66.7,71.3,68.4,65.9,97,79,47,29.91,29.83,11,3,11,0.04
2013-9-2,86.9,75.5,66.9,71.9,68.3,62.6,97,80,56,29.88,29.80,15,4,15,0.00
2013-9-3,66.9,63.4,52.3,62.6,59.8,51.0,96,88,86,30.09,29.88,1,1,1,0.00
2013-9-4,86.9,67.0,48.9,61.7,53.9,48.4,98,69,35,30.15,30.09,13,2,13,0.00
2013-9-5,86.0,69.3,55.6,64.8,57.1,43.8,97,70,35,30.24,29.12,15,3,15,0.00
2013-9-6,84.9,63.9,45.5,52.7,47.8,39.1,95,62,25,30.27,30.12,9,3,9,0.00
2013-9-7,90.0,68.3,48.9,64.2,55.1,47.4,96,67,38,30.12,29.97,8,3,10,0.00
2013-9-8,91.2,75.0,64.0,70.0,65.1,62.2,95,74,46,30.06,29.97,10,3,10,0.00
2013-9-9,90.9,75.4,61.5,70.3,64.9,59.7,94,73,45,30.09,28.97,13,5,13,0.00
2013-9-10,97.6,82.5,72.1,74.2,70.8,67.9,90,70,44,30.15,30.06,12,6,16,0.00
2013-9-11,92.7,78.8,71.8,73.8,71.2,66.3,94,79,47,30.18,30.03,13,4,13,0.04
2013-9-12,78.1,70.7,61.9,71.9,67.2,57.8,97,89,65,30.03,29.88,17,4,17,0.54
2013-9-13,68.9,58.4,48.6,58.1,49.2,43.2,97,74,47,30.09,29.91,17,7,17,0.00
2013-9-14,76.6,56.7,40.8,49.5,43.8,39.9,97,68,33,30.18,30.06,12,2,12,0.00
2013-9-15,75.7,60.3,43.0,58.4,49.0,42.1,98,71,38,30.18,30.06,10,2,10,0.00
2013-9-16,77.2,62.5,53.8,60.2,53.1,46.7,98,75,41,30.33,30.12,13,3,13,0.12
2013-9-17,80.1,60.9,47.8,53.8,49.8,46.7,98,71,40,30.36,30.21,10,4,10,0.04
2013-9-18,79.5,64.2,54.3,62.7,56.8,50.9,96,79,51,30.21,30.09,10,5,10,0.00
2013-9-19,72.0,66.5,63.7,68.4,64.8,62.5,98,94,85,30.15,30.06,12,4,12,0.00
2013-9-20,92.1,74.2,65.1,70.0,66.5,63.5,98,80,42,30.06,29.85,15,5,15,0.00
2013-9-21,75.6,65.4,54.5,67.0,56.0,47.2,98,74,45,29.88,28.67,16,4,16,0.17
2013-9-22,67.3,55.1,47.7,50.6,45.8,39.5,98,74,46,30.06,29.88,12,4,12,0.00
2013-9-23,71.1,54.3,43.3,49.3,43.5,40.4,98,71,41,30.15,30.03,10,3,10,0.00
2013-9-24,75.4,55.0,38.5,48.3,43.8,38.0,98,71,37,30.12,29.97,10,2,10,0.00
2013-9-25,74.8,58.6,46.6,53.0,48.6,44.9,97,74,42,30.00,29.91,9,2,9,0.00
2013-9-26,86.7,66.6,49.3,56.4,49.3,41.8,96,60,26,30.12,29.94,9,3,9,0.00
2013-9-27,85.3,64.5,46.0,55.5,49.6,43.8,94,63,33,30.21,30.12,8,3,8,0.00
2013-9-28,85.5,66.0,51.4,56.8,52.0,47.9,97,65,34,30.24,30.15,8,4,9,0.00
2013-9-29,78.8,63.8,54.0,60.4,56.5,52.1,98,79,49,30.15,30.03,15,4,15,0.00
2013-9-30,77.4,64.7,59.9,65.5,59.1,55.8,97,84,50,30.06,30.00,8,3,9,0.00